Date String (YYYY-MM-DD hh:mm:ss) UTC,Instrument flags,absolute air pressure of the measurement (hPa),sample flow rate (lpm),inlet stack bypass flow (lpm),air temperature of the measurement (°C),ambient temperature measured by the external sensor (°C),aerosol sample conditioner tube jacket temperature (°C),OPC LED temperature (°C),internal box temperature (°C),relative humidity of the measurement (%),span deviation,mass concentration of particles derived from Lorenz-Mie calculation of OPC scattering (μg/m³),mass concentration of particles derived from Lorenz-Mie calculation of OPC scattering (μg/m³),mass concentration of particles derived from Lorenz-Mie calculation of OPC scattering (μg/m³)
DateTimeUTC,F1_M11,P_M11,Q1_M11,Q2_M11,T1_M11,T2_M11,T3_M11,T4_M11,T5_M11,U1_M11,ZSPAN_M11,X0_M11,X2_M11,X1_M11
2024-05-13 19:00:00,SystemResetWarning,0827.0,5.00,000.00,024.2,023.2,000.0,032.3,026.0,025.8,0000.0,0012.22,0004.18,0003.60
2024-05-13 19:01:00,SystemResetWarning,0827.1,5.00,000.00,024.2,023.4,000.0,032.3,026.1,025.6,0000.0,0012.22,0004.19,0003.59
2024-05-13 19:02:00,SystemResetWarning,0827.1,4.99,000.00,024.3,023.6,000.0,032.4,026.2,025.5,0000.0,0012.44,0004.21,0003.60
2024-05-13 19:03:00,SystemResetWarning,0827.1,4.99,000.00,024.4,023.8,000.0,032.4,026.3,025.4,0000.0,0012.24,0004.23,0003.61
2024-05-13 19:04:00,SystemResetWarning,0827.1,4.99,000.00,024.5,024.0,000.0,032.4,026.4,025.2,0000.0,0012.73,0004.24,0003.62
2024-05-13 19:05:00,SystemResetWarning,0827.1,5.00,000.00,024.6,024.1,000.0,032.5,026.5,025.2,0000.0,0013.08,0004.26,0003.62
2024-05-13 19:06:00,SystemResetWarning,0827.1,4.99,000.00,024.5,023.0,000.0,032.6,025.9,025.5,0000.0,0013.54,0004.28,0003.61
2024-05-13 19:07:00,SystemResetWarning,0827.1,5.01,000.00,024.1,021.1,000.0,032.6,024.9,026.0,0000.0,0013.54,0004.26,0003.61
2024-05-13 19:08:00,SystemResetWarning,0827.2,5.01,000.00,023.9,021.0,000.0,032.6,024.8,025.6,0000.0,0012.07,0004.27,0003.61
2024-05-13 19:09:00,SystemResetWarning,0827.2,5.00,000.00,023.8,021.5,000.0,032.5,024.9,025.9,0000.0,0010.58,0004.25,0003.60
2024-05-13 19:10:00,SystemResetWarning,0827.1,5.00,000.00,023.8,021.9,000.0,032.3,025.2,025.0,0000.0,0010.19,0004.22,0003.59
2024-05-13 19:11:00,SystemResetWarning,0827.1,5.00,000.00,023.9,022.3,000.0,032.3,025.5,024.7,0000.0,0010.30,0004.23,0003.59
2024-05-13 19:12:00,SystemResetWarning,0827.1,5.00,000.00,024.0,022.7,000.0,032.2,025.6,024.3,0000.0,0010.50,0004.18,0003.58
2024-05-13 19:13:00,SystemResetWarning,0827.1,5.00,000.00,024.0,023.0,000.0,032.2,025.8,024.6,0000.0,0010.82,0004.16,0003.57
2024-05-13 19:14:00,SystemResetWarning,0827.1,5.00,000.00,024.1,023.2,000.0,032.2,026.0,024.6,0000.0,0011.31,0004.15,0003.57
2024-05-13 19:15:00,SystemResetWarning,0827.1,5.01,000.00,024.2,023.5,000.0,032.2,026.1,024.2,0000.0,0011.10,0004.15,0003.57
2024-05-13 19:16:00,SystemResetWarning,0827.1,4.99,000.00,024.3,023.7,000.0,032.3,026.3,024.4,0000.0,0011.60,0004.10,0003.57
2024-05-13 19:17:00,SystemResetWarning,0827.1,4.99,000.00,024.4,023.9,000.0,032.3,026.4,024.8,0000.0,0011.02,0004.07,0003.58
2024-05-13 19:18:00,SystemResetWarning,0827.1,4.99,000.00,024.5,024.0,000.0,032.3,026.5,024.7,0000.0,0010.99,0004.08,0003.58
2024-05-13 19:19:00,SystemResetWarning,0827.1,5.00,000.00,024.6,024.2,000.0,032.4,026.6,024.5,0000.0,0011.35,0004.08,0003.58
2024-05-13 19:20:00,SystemResetWarning,0827.1,5.00,000.00,024.6,023.8,000.0,032.5,026.3,024.2,0000.0,0011.53,0004.08,0003.58
2024-05-13 19:21:00,SystemResetWarning,0827.0,5.00,000.00,024.3,021.9,000.0,032.6,025.2,024.6,0000.0,0011.43,0004.08,0003.60
2024-05-13 19:22:00,SystemResetWarning,0827.0,5.01,000.00,024.0,021.1,000.0,032.6,024.8,025.3,0000.0,0011.22,0004.04,0003.60
2024-05-13 19:23:00,SystemResetWarning,0827.0,5.02,000.00,023.9,021.5,000.0,032.5,024.9,025.1,0000.0,0011.08,0004.06,0003.60
2024-05-13 19:24:00,SystemResetWarning,0827.0,4.97,000.00,023.9,021.9,000.0,032.4,025.1,024.9,0000.0,0010.48,0004.05,0003.61
2024-05-13 19:25:00,SystemResetWarning,0827.0,5.01,000.00,023.9,022.3,000.0,032.3,025.4,026.6,0000.0,0009.94,0004.08,0003.62
2024-05-13 19:26:00,SystemResetWarning,0827.1,5.01,000.00,024.0,022.7,000.0,032.3,025.6,025.8,0000.0,0010.53,0004.08,0003.62
2024-05-13 19:27:00,SystemResetWarning,0827.0,5.00,000.00,024.1,023.0,000.0,032.2,025.8,024.2,0000.0,0009.26,0004.10,0003.62
2024-05-13 19:28:00,SystemResetWarning,0827.1,4.99,000.00,024.1,023.3,000.0,032.2,026.0,023.7,0000.0,0009.17,0004.09,0003.63
2024-05-13 19:29:00,SystemResetWarning,0827.1,5.00,000.00,024.2,023.5,000.0,032.3,026.1,023.8,0000.0,0009.31,0004.09,0003.62
2024-05-13 19:30:00,SystemResetWarning,0827.1,5.01,000.00,024.3,023.7,000.0,032.3,026.3,023.9,0000.0,0009.04,0004.13,0003.63
2024-05-13 19:31:00,SystemResetWarning,0827.1,5.00,000.00,024.4,023.9,000.0,032.3,026.3,023.3,0000.0,0008.95,0004.16,0003.64
2024-05-13 19:32:00,SystemResetWarning,0827.1,5.00,000.00,024.5,024.0,000.0,032.3,026.4,023.0,0000.0,0008.97,0004.16,0003.64
2024-05-13 19:33:00,SystemResetWarning,0827.0,5.00,000.00,024.6,024.0,000.0,032.4,026.4,022.8,0000.0,0009.15,0004.16,0003.65
2024-05-13 19:34:00,SystemResetWarning,0827.0,4.98,000.00,024.4,022.6,000.0,032.5,025.6,023.0,0000.0,0009.32,0004.16,0003.65
2024-05-13 19:35:00,SystemResetWarning,0826.9,5.01,000.00,024.0,021.2,000.0,032.6,024.7,023.3,0000.0,0009.33,0004.16,0003.65
2024-05-13 19:36:00,SystemResetWarning,0826.9,5.01,000.00,023.8,021.4,000.0,032.5,024.8,023.3,0000.0,0009.38,0004.12,0003.65
2024-05-13 19:37:00,SystemResetWarning,0826.9,5.00,000.00,023.8,021.8,000.0,032.4,025.1,023.8,0000.0,0008.49,0004.11,0003.65
2024-05-13 19:38:00,SystemResetWarning,0826.9,5.00,000.00,023.9,022.2,000.0,032.3,025.3,023.7,0000.0,0008.59,0004.16,0003.66
2024-05-13 19:39:00,SystemResetWarning,0826.9,4.99,000.00,023.9,022.5,000.0,032.2,025.6,023.5,0000.0,0008.46,0004.22,0003.67
2024-05-13 19:40:00,SystemResetWarning,0826.9,5.00,000.00,024.0,022.9,000.0,032.2,025.7,024.0,0000.0,0008.33,0004.23,0003.69
2024-05-13 19:41:00,SystemResetWarning,0826.8,5.00,000.00,024.1,023.2,000.0,032.2,025.9,024.0,0000.0,0008.70,0004.22,0003.70
2024-05-13 19:42:00,SystemResetWarning,0826.8,4.99,000.00,024.2,023.4,000.0,032.2,026.1,024.2,0000.0,0009.59,0004.24,0003.71
2024-05-13 19:43:00,SystemResetWarning,0826.8,4.99,000.00,024.3,023.6,000.0,032.3,026.2,023.6,0000.0,0009.91,0004.29,0003.72
2024-05-13 19:44:00,SystemResetWarning,0826.8,5.00,000.00,024.4,023.8,000.0,032.3,026.3,024.1,0000.0,0009.93,0004.34,0003.72
2024-05-13 19:45:00,SystemResetWarning,0826.8,5.00,000.00,024.4,024.0,000.0,032.3,026.4,022.9,0000.0,0010.72,0004.33,0003.72
2024-05-13 19:46:00,SystemResetWarning,0826.8,5.00,000.00,024.5,023.8,000.0,032.4,026.3,023.0,0000.0,0010.92,0004.34,0003.72
2024-05-13 19:47:00,SystemResetWarning,0826.8,5.00,000.00,024.2,021.9,000.0,032.5,025.2,023.5,0000.0,0010.77,0004.38,0003.73
2024-05-13 19:48:00,SystemResetWarning,0826.8,5.01,000.00,023.9,020.9,000.0,032.5,024.6,023.9,0000.0,0010.66,0004.37,0003.73
2024-05-13 19:49:00,SystemResetWarning,0826.8,5.02,000.00,023.7,021.3,000.0,032.4,024.8,025.4,0000.0,0010.59,0004.34,0003.74
2024-05-13 19:50:00,SystemResetWarning,0826.8,5.00,000.00,023.7,021.7,000.0,032.3,025.0,025.5,0000.0,0010.57,0004.34,0003.75
2024-05-13 19:51:00,SystemResetWarning,0826.8,5.00,000.00,023.8,022.1,000.0,032.2,025.3,025.8,0000.0,0011.12,0004.37,0003.79
2024-05-13 19:52:00,SystemResetWarning,0826.8,5.00,000.00,023.9,022.5,000.0,032.2,025.5,025.2,0000.0,0011.96,0004.44,0003.82
2024-05-13 19:53:00,SystemResetWarning,0826.8,4.99,000.00,023.9,022.8,000.0,032.1,025.6,025.2,0000.0,0010.98,0004.44,0003.84
2024-05-13 19:54:00,SystemResetWarning,0826.8,4.99,000.00,024.0,023.1,000.0,032.1,025.9,024.8,0000.0,0011.21,0004.42,0003.86
2024-05-13 19:55:00,SystemResetWarning,0826.8,5.00,000.00,024.1,023.3,000.0,032.2,026.0,024.9,0000.0,0011.67,0004.44,0003.88
2024-05-13 19:56:00,SystemResetWarning,0826.8,5.00,000.00,024.2,023.6,000.0,032.2,026.1,024.4,0000.0,0011.58,0004.50,0003.91
2024-05-13 19:57:00,SystemResetWarning,0826.8,5.01,000.00,024.3,023.8,000.0,032.2,026.3,024.2,0000.0,0011.45,0004.55,0003.93
2024-05-13 19:58:00,SystemResetWarning,0826.8,5.00,000.00,024.4,023.9,000.0,032.2,026.3,024.5,0000.0,0011.52,0004.57,0003.95
2024-05-13 19:59:00,SystemResetWarning,0826.8,5.00,000.00,024.5,024.0,000.0,032.3,026.3,024.2,0000.0,0011.66,0004.61,0003.96
